Location: Arbon
(43.0005°N, 0.7472°E)
Time: 21:45:46
(UTC+00:00)

SL-4 R/B - Visible Passes

Search period start: 28 November 2021 00:00
Search period end: 08 December 2021 00:00
Orbit: 427 x 661 km, 51.6° (Epoch: 27 November)

Date Brightness Start Highest point End Pass type
(mag) Time Alt. Az. Time Alt. Az. Time Alt. Az.
28 Nov 5.4 17:20:25 10° W 17:23:23 17° SW 17:26:24 10° S visible
29 Nov 5.7 17:13:48 10° WSW 17:15:50 13° SW 17:17:54 10° SSW visible
04 Dec 4.4 06:37:15 10° S 06:40:11 24° SE 06:43:17 10° ENE visible
05 Dec 3.7 06:29:30 10° SSW 06:32:41 32° SE 06:36:04 10° ENE visible
06 Dec 3.0 06:21:52 10° SSW 06:25:12 43° SE 06:28:47 10° ENE visible
07 Dec 2.3 06:14:19 10° SW 06:17:45 58° SE 06:21:27 10° ENE visible
